Year,Month,Day,Hour,Minute,Value (Times are PST for insolation in W/m^2)
2008,03,01,00,00,0.00
2008,03,01,00,01,0.00
2008,03,01,00,02,0.00
2008,03,01,00,03,0.00
2008,03,01,00,04,0.00
2008,03,01,00,05,0.00
2008,03,01,00,06,0.00
2008,03,01,00,07,0.00
2008,03,01,00,08,0.00
2008,03,01,00,09,0.00
2008,03,01,00,10,0.00
2008,03,01,00,11,0.00
2008,03,01,00,12,0.00
2008,03,01,00,13,0.00
2008,03,01,00,14,0.00
2008,03,01,00,15,0.00
2008,03,01,00,16,0.00
2008,03,01,00,17,0.00
2008,03,01,00,18,0.00
2008,03,01,00,19,0.00
2008,03,01,00,20,0.00
2008,03,01,00,21,0.00
2008,03,01,00,22,0.00
2008,03,01,00,23,0.00
2008,03,01,00,24,0.00
2008,03,01,00,25,0.00
2008,03,01,00,26,0.00
2008,03,01,00,27,0.00
2008,03,01,00,28,0.00
2008,03,01,00,29,0.00
2008,03,01,00,30,0.00
2008,03,01,00,31,0.00
2008,03,01,00,32,0.00
2008,03,01,00,33,0.00
2008,03,01,00,34,0.00
2008,03,01,00,35,0.00
2008,03,01,00,36,0.00
2008,03,01,00,37,0.00
2008,03,01,00,38,0.00
2008,03,01,00,39,0.00
2008,03,01,00,40,0.00
2008,03,01,00,41,0.00
2008,03,01,00,42,0.00
2008,03,01,00,43,0.00
2008,03,01,00,44,0.00
2008,03,01,00,45,0.00
2008,03,01,00,46,0.00
2008,03,01,00,47,0.00
2008,03,01,00,48,0.00
2008,03,01,00,49,0.00
2008,03,01,00,50,0.00
2008,03,01,00,51,0.00
2008,03,01,00,52,0.00
2008,03,01,00,53,0.00
2008,03,01,00,54,0.00
2008,03,01,00,55,0.00
2008,03,01,00,56,0.00
2008,03,01,00,57,0.00
2008,03,01,00,58,0.00
2008,03,01,00,59,0.00
2008,03,01,01,00,0.00
2008,03,01,01,01,0.00
2008,03,01,01,02,0.00
2008,03,01,01,03,0.00
2008,03,01,01,04,0.00
2008,03,01,01,05,0.00
2008,03,01,01,06,0.00
2008,03,01,01,07,0.00
2008,03,01,01,08,0.00
2008,03,01,01,09,0.00
2008,03,01,01,10,0.00
2008,03,01,01,11,0.00
2008,03,01,01,12,0.00
2008,03,01,01,13,0.00
2008,03,01,01,14,0.00
2008,03,01,01,15,0.00
2008,03,01,01,16,0.00
2008,03,01,01,17,0.00
2008,03,01,01,18,0.00
2008,03,01,01,19,0.00
2008,03,01,01,20,0.00
2008,03,01,01,21,0.00
2008,03,01,01,22,0.00
2008,03,01,01,23,0.00
2008,03,01,01,24,0.00
2008,03,01,01,25,0.00
2008,03,01,01,26,0.00
2008,03,01,01,27,0.00
2008,03,01,01,28,0.00
2008,03,01,01,29,0.00
2008,03,01,01,30,0.00
2008,03,01,01,31,0.00
2008,03,01,01,32,0.00
2008,03,01,01,33,0.00
2008,03,01,01,34,0.00
2008,03,01,01,35,0.00
2008,03,01,01,36,0.00
2008,03,01,01,37,0.00
2008,03,01,01,38,0.00
2008,03,01,01,39,0.00
2008,03,01,01,40,0.00
2008,03,01,01,41,0.00
2008,03,01,01,42,0.00
2008,03,01,01,43,0.00
2008,03,01,01,44,0.00
2008,03,01,01,45,0.00
2008,03,01,01,46,0.00
2008,03,01,01,47,0.00
2008,03,01,01,48,0.00
2008,03,01,01,49,0.00
2008,03,01,01,50,0.00
2008,03,01,01,51,0.00
2008,03,01,01,52,0.00
2008,03,01,01,53,0.00
2008,03,01,01,54,0.00
2008,03,01,01,55,0.00
2008,03,01,01,56,0.00
2008,03,01,01,57,0.00
2008,03,01,01,58,0.00
2008,03,01,01,59,0.00
2008,03,01,02,00,0.00
2008,03,01,02,01,0.00
2008,03,01,02,02,0.00
2008,03,01,02,03,0.00
2008,03,01,02,04,0.00
2008,03,01,02,05,0.00
2008,03,01,02,06,0.00
2008,03,01,02,07,0.00
2008,03,01,02,08,0.00
2008,03,01,02,09,0.00
2008,03,01,02,10,0.00
2008,03,01,02,11,0.00
2008,03,01,02,12,0.00
2008,03,01,02,13,0.00
2008,03,01,02,14,0.00
2008,03,01,02,15,0.00
2008,03,01,02,16,0.00
2008,03,01,02,17,0.00
2008,03,01,02,18,0.00
2008,03,01,02,19,0.00
2008,03,01,02,20,0.00
2008,03,01,02,21,0.00
2008,03,01,02,22,0.00
2008,03,01,02,23,0.00
2008,03,01,02,24,0.00
2008,03,01,02,25,0.00
2008,03,01,02,26,0.00
2008,03,01,02,27,0.00
2008,03,01,02,28,0.00
2008,03,01,02,29,0.00
2008,03,01,02,30,0.00
2008,03,01,02,31,0.00
2008,03,01,02,32,0.00
2008,03,01,02,33,0.00
2008,03,01,02,34,0.00
2008,03,01,02,35,0.00
2008,03,01,02,36,0.00
2008,03,01,02,37,0.00
2008,03,01,02,38,0.00
2008,03,01,02,39,0.00
2008,03,01,02,40,0.00
2008,03,01,02,41,0.00
2008,03,01,02,42,0.00
2008,03,01,02,43,0.00
2008,03,01,02,44,0.00
2008,03,01,02,45,0.00
2008,03,01,02,46,0.00
2008,03,01,02,47,0.00
2008,03,01,02,48,0.00
2008,03,01,02,49,0.00
2008,03,01,02,50,0.00
2008,03,01,02,51,0.00
2008,03,01,02,52,0.00
2008,03,01,02,53,0.00
2008,03,01,02,54,0.00
2008,03,01,02,55,0.00
2008,03,01,02,56,0.00
2008,03,01,02,57,0.00
2008,03,01,02,58,0.00
2008,03,01,02,59,0.00
2008,03,01,03,00,0.00
2008,03,01,03,01,0.00
2008,03,01,03,02,0.00
2008,03,01,03,03,0.00
2008,03,01,03,04,0.00
2008,03,01,03,05,0.00
2008,03,01,03,06,0.00
2008,03,01,03,07,0.00
2008,03,01,03,08,0.00
2008,03,01,03,09,0.00
2008,03,01,03,10,0.00
2008,03,01,03,11,0.00
2008,03,01,03,12,0.00
2008,03,01,03,13,0.00
2008,03,01,03,14,0.00
2008,03,01,03,15,0.00
2008,03,01,03,16,0.00
2008,03,01,03,17,0.00
2008,03,01,03,18,0.00
2008,03,01,03,19,0.00
2008,03,01,03,20,0.00
2008,03,01,03,21,0.00
2008,03,01,03,22,0.00
2008,03,01,03,23,0.00
2008,03,01,03,24,0.00
2008,03,01,03,25,0.00
2008,03,01,03,26,0.00
2008,03,01,03,27,0.00
2008,03,01,03,28,0.00
2008,03,01,03,29,0.00
2008,03,01,03,30,0.00
2008,03,01,03,31,0.00
2008,03,01,03,32,0.00
2008,03,01,03,33,0.00
2008,03,01,03,34,0.00
2008,03,01,03,35,0.00
2008,03,01,03,36,0.00
2008,03,01,03,37,0.00
2008,03,01,03,38,0.00
2008,03,01,03,39,0.00
2008,03,01,03,40,0.00
2008,03,01,03,41,0.00
2008,03,01,03,42,0.00
2008,03,01,03,43,0.00
2008,03,01,03,44,0.00
2008,03,01,03,45,0.00
2008,03,01,03,46,0.00
2008,03,01,03,47,0.00
2008,03,01,03,48,0.00
2008,03,01,03,49,0.00
2008,03,01,03,50,0.00
2008,03,01,03,51,0.00
2008,03,01,03,52,0.00
2008,03,01,03,53,0.00
2008,03,01,03,54,0.00
2008,03,01,03,55,0.00
2008,03,01,03,56,0.00
2008,03,01,03,57,0.00
2008,03,01,03,58,0.00
2008,03,01,03,59,0.00
2008,03,01,04,00,0.00
2008,03,01,04,01,0.00
2008,03,01,04,02,0.00
2008,03,01,04,03,0.00
2008,03,01,04,04,0.00
2008,03,01,04,05,0.00
2008,03,01,04,06,0.00
2008,03,01,04,07,0.00
2008,03,01,04,08,0.00
2008,03,01,04,09,0.00
2008,03,01,04,10,0.00
2008,03,01,04,11,0.00
2008,03,01,04,12,0.00
2008,03,01,04,13,0.00
2008,03,01,04,14,0.00
2008,03,01,04,15,0.00
2008,03,01,04,16,0.00
2008,03,01,04,17,0.00
2008,03,01,04,18,0.00
2008,03,01,04,19,0.00
2008,03,01,04,20,0.00
2008,03,01,04,21,0.00
2008,03,01,04,22,0.00
2008,03,01,04,23,0.00
2008,03,01,04,24,0.00
2008,03,01,04,25,0.00
2008,03,01,04,26,0.00
2008,03,01,04,27,0.00
2008,03,01,04,28,0.00
2008,03,01,04,29,0.00
2008,03,01,04,30,0.00
2008,03,01,04,31,0.00
2008,03,01,04,32,0.00
2008,03,01,04,33,0.00
2008,03,01,04,34,0.00
2008,03,01,04,35,0.00
2008,03,01,04,36,0.00
2008,03,01,04,37,0.00
2008,03,01,04,38,0.00
2008,03,01,04,39,0.00
2008,03,01,04,40,0.00
2008,03,01,04,41,0.00
2008,03,01,04,42,0.00
2008,03,01,04,43,0.00
2008,03,01,04,44,0.00
2008,03,01,04,45,0.00
2008,03,01,04,46,0.00
2008,03,01,04,47,0.00
2008,03,01,04,48,0.00
2008,03,01,04,49,0.00
2008,03,01,04,50,0.00
2008,03,01,04,51,0.00
2008,03,01,04,52,0.00
2008,03,01,04,53,0.00
2008,03,01,04,54,0.00
2008,03,01,04,55,0.00
2008,03,01,04,56,0.00
2008,03,01,04,57,0.00
2008,03,01,04,58,0.00
2008,03,01,04,59,0.00
2008,03,01,05,00,0.00
2008,03,01,05,01,0.00
2008,03,01,05,02,0.00
2008,03,01,05,03,0.00
2008,03,01,05,04,0.00
2008,03,01,05,05,0.00
2008,03,01,05,06,0.00
2008,03,01,05,07,0.00
2008,03,01,05,08,0.00
2008,03,01,05,09,0.00
2008,03,01,05,10,0.00
2008,03,01,05,11,0.00
2008,03,01,05,12,0.00
2008,03,01,05,13,0.00
2008,03,01,05,14,0.00
2008,03,01,05,15,0.00
2008,03,01,05,16,0.00
2008,03,01,05,17,0.00
2008,03,01,05,18,0.00
2008,03,01,05,19,0.00
2008,03,01,05,20,0.00
2008,03,01,05,21,0.00
2008,03,01,05,22,0.00
2008,03,01,05,23,0.00
2008,03,01,05,24,0.00
2008,03,01,05,25,0.00
2008,03,01,05,26,0.00
2008,03,01,05,27,0.00
2008,03,01,05,28,0.00
2008,03,01,05,29,0.00
2008,03,01,05,30,0.00
2008,03,01,05,31,0.00
2008,03,01,05,32,0.00
2008,03,01,05,33,0.00
2008,03,01,05,34,0.00
2008,03,01,05,35,0.00
2008,03,01,05,36,0.00
2008,03,01,05,37,0.00
2008,03,01,05,38,0.00
2008,03,01,05,39,0.00
2008,03,01,05,40,0.00
2008,03,01,05,41,0.00
2008,03,01,05,42,0.00
2008,03,01,05,43,0.00
2008,03,01,05,44,0.00
2008,03,01,05,45,0.00
2008,03,01,05,46,0.00
2008,03,01,05,47,0.00
2008,03,01,05,48,0.00
2008,03,01,05,49,0.00
2008,03,01,05,50,0.00
2008,03,01,05,51,0.00
2008,03,01,05,52,0.00
2008,03,01,05,53,0.00
2008,03,01,05,54,0.00
2008,03,01,05,55,0.00
2008,03,01,05,56,0.00
2008,03,01,05,57,0.00
2008,03,01,05,58,0.00
2008,03,01,05,59,0.00
2008,03,01,06,00,0.00
2008,03,01,06,01,0.00
2008,03,01,06,02,0.00
2008,03,01,06,03,0.00
2008,03,01,06,04,0.00
2008,03,01,06,05,0.00
2008,03,01,06,06,0.00
2008,03,01,06,07,0.00
2008,03,01,06,08,0.00
2008,03,01,06,09,0.00
2008,03,01,06,10,0.00
2008,03,01,06,11,0.00
2008,03,01,06,12,0.00
2008,03,01,06,13,0.00
2008,03,01,06,14,0.00
2008,03,01,06,15,0.00
2008,03,01,06,16,0.00
2008,03,01,06,17,0.00
2008,03,01,06,18,0.00
2008,03,01,06,19,0.00
2008,03,01,06,20,0.00
2008,03,01,06,21,0.00
2008,03,01,06,22,0.00
2008,03,01,06,23,0.00
2008,03,01,06,24,0.00
2008,03,01,06,25,0.00
2008,03,01,06,26,0.00
2008,03,01,06,27,0.00
2008,03,01,06,28,0.00
2008,03,01,06,29,0.00
2008,03,01,06,30,0.00
2008,03,01,06,31,0.00
2008,03,01,06,32,0.00
2008,03,01,06,33,0.00
2008,03,01,06,34,0.00
2008,03,01,06,35,0.00
2008,03,01,06,36,0.00
2008,03,01,06,37,0.00
2008,03,01,06,38,0.00
2008,03,01,06,39,0.00
2008,03,01,06,40,0.00
2008,03,01,06,41,0.00
2008,03,01,06,42,0.00
2008,03,01,06,43,0.00
2008,03,01,06,44,0.00
2008,03,01,06,45,0.00
2008,03,01,06,46,0.00
2008,03,01,06,47,0.00
2008,03,01,06,48,0.00
2008,03,01,06,49,0.00
2008,03,01,06,50,0.00
2008,03,01,06,51,0.00
2008,03,01,06,52,0.00
2008,03,01,06,53,0.00
2008,03,01,06,54,0.00
2008,03,01,06,55,0.00
2008,03,01,06,56,0.00
2008,03,01,06,57,0.00
2008,03,01,06,58,0.00
2008,03,01,06,59,2.80
2008,03,01,07,00,5.00
2008,03,01,07,01,5.00
2008,03,01,07,02,5.00
2008,03,01,07,03,5.00
2008,03,01,07,04,5.00
2008,03,01,07,05,5.90
2008,03,01,07,06,7.00
2008,03,01,07,07,7.00
2008,03,01,07,08,7.00
2008,03,01,07,09,7.00
2008,03,01,07,10,7.00
2008,03,01,07,11,8.10
2008,03,01,07,12,9.00
2008,03,01,07,13,9.00
2008,03,01,07,14,9.00
2008,03,01,07,15,9.60
2008,03,01,07,16,11.00
2008,03,01,07,17,11.00
2008,03,01,07,18,11.00
2008,03,01,07,19,12.00
2008,03,01,07,20,12.20
2008,03,01,07,21,14.60
2008,03,01,07,22,16.80
2008,03,01,07,23,18.60
2008,03,01,07,24,20.60
2008,03,01,07,25,25.00
2008,03,01,07,26,26.50
2008,03,01,07,27,30.70
2008,03,01,07,28,33.40
2008,03,01,07,29,36.40
2008,03,01,07,30,38.40
2008,03,01,07,31,40.00
2008,03,01,07,32,44.00
2008,03,01,07,33,44.70
2008,03,01,07,34,46.00
2008,03,01,07,35,46.00
2008,03,01,07,36,46.00
2008,03,01,07,37,44.00
2008,03,01,07,38,44.00
2008,03,01,07,39,44.00
2008,03,01,07,40,44.00
2008,03,01,07,41,45.40
2008,03,01,07,42,46.00
2008,03,01,07,43,47.00
2008,03,01,07,44,47.00
2008,03,01,07,45,47.00
2008,03,01,07,46,47.00
2008,03,01,07,47,44.70
2008,03,01,07,48,40.20
2008,03,01,07,49,37.00
2008,03,01,07,50,30.60
2008,03,01,07,51,24.80
2008,03,01,07,52,20.80
2008,03,01,07,53,18.40
2008,03,01,07,54,18.00
2008,03,01,07,55,18.10
2008,03,01,07,56,19.00
2008,03,01,07,57,19.00
2008,03,01,07,58,18.40
2008,03,01,07,59,18.00
2008,03,01,08,00,18.00
2008,03,01,08,01,18.00
2008,03,01,08,02,18.00
2008,03,01,08,03,18.00
2008,03,01,08,04,18.60
2008,03,01,08,05,19.00
2008,03,01,08,06,21.00
2008,03,01,08,07,21.00
2008,03,01,08,08,21.00
2008,03,01,08,09,21.00
2008,03,01,08,10,22.40
2008,03,01,08,11,23.00
2008,03,01,08,12,25.00
2008,03,01,08,13,25.20
2008,03,01,08,14,26.60
2008,03,01,08,15,29.10
2008,03,01,08,16,31.40
2008,03,01,08,17,34.60
2008,03,01,08,18,37.20
2008,03,01,08,19,40.80
2008,03,01,08,20,45.10
2008,03,01,08,21,48.80
2008,03,01,08,22,53.10
2008,03,01,08,23,57.50
2008,03,01,08,24,62.00
2008,03,01,08,25,62.00
2008,03,01,08,26,61.30
2008,03,01,08,27,61.10
2008,03,01,08,28,64.20
2008,03,01,08,29,66.50
2008,03,01,08,30,70.20
2008,03,01,08,31,74.80
2008,03,01,08,32,78.40
2008,03,01,08,33,82.10
2008,03,01,08,34,83.00
2008,03,01,08,35,83.00
2008,03,01,08,36,78.40
2008,03,01,08,37,73.00
2008,03,01,08,38,68.00
2008,03,01,08,39,63.10
2008,03,01,08,40,58.80
2008,03,01,08,41,54.80
2008,03,01,08,42,52.80
2008,03,01,08,43,50.40
2008,03,01,08,44,48.10
2008,03,01,08,45,46.50
2008,03,01,08,46,44.40
2008,03,01,08,47,46.00
2008,03,01,08,48,46.10
2008,03,01,08,49,47.50
2008,03,01,08,50,51.00
2008,03,01,08,51,53.00
2008,03,01,08,52,57.10
2008,03,01,08,53,63.00
2008,03,01,08,54,67.00
2008,03,01,08,55,69.80
2008,03,01,08,56,77.60
2008,03,01,08,57,81.80
2008,03,01,08,58,83.00
2008,03,01,08,59,83.00
2008,03,01,09,00,80.70
2008,03,01,09,01,77.90
2008,03,01,09,02,74.90
2008,03,01,09,03,72.60
2008,03,01,09,04,72.00
2008,03,01,09,05,73.80
2008,03,01,09,06,74.60
2008,03,01,09,07,78.40
2008,03,01,09,08,82.70
2008,03,01,09,09,86.80
2008,03,01,09,10,90.60
2008,03,01,09,11,97.20
2008,03,01,09,12,101.00
2008,03,01,09,13,105.80
2008,03,01,09,14,108.10
2008,03,01,09,15,110.20
2008,03,01,09,16,112.90
2008,03,01,09,17,116.70
2008,03,01,09,18,131.20
2008,03,01,09,19,141.00
2008,03,01,09,20,153.30
2008,03,01,09,21,156.20
2008,03,01,09,22,139.90
2008,03,01,09,23,139.90
2008,03,01,09,24,150.20
2008,03,01,09,25,182.50
2008,03,01,09,26,215.60
2008,03,01,09,27,227.90
2008,03,01,09,28,209.00
2008,03,01,09,29,165.20
2008,03,01,09,30,168.00
2008,03,01,09,31,171.00
2008,03,01,09,32,185.20
2008,03,01,09,33,175.10
2008,03,01,09,34,151.40
2008,03,01,09,35,127.10
2008,03,01,09,36,121.00
2008,03,01,09,37,122.10
2008,03,01,09,38,125.80
2008,03,01,09,39,129.60
2008,03,01,09,40,132.00
2008,03,01,09,41,131.60
2008,03,01,09,42,130.00
2008,03,01,09,43,130.00
2008,03,01,09,44,127.90
2008,03,01,09,45,121.70
2008,03,01,09,46,116.00
2008,03,01,09,47,115.20
2008,03,01,09,48,141.00
2008,03,01,09,49,132.20
2008,03,01,09,50,97.80
2008,03,01,09,51,90.60
2008,03,01,09,52,83.70
2008,03,01,09,53,78.40
2008,03,01,09,54,84.60
2008,03,01,09,55,140.30
2008,03,01,09,56,174.00
2008,03,01,09,57,380.20
2008,03,01,09,58,384.30
2008,03,01,09,59,396.60
2008,03,01,10,00,405.90
2008,03,01,10,01,411.80
2008,03,01,10,02,418.70
2008,03,01,10,03,423.20
2008,03,01,10,04,399.90
2008,03,01,10,05,421.40
2008,03,01,10,06,420.90
2008,03,01,10,07,423.90
2008,03,01,10,08,427.80
2008,03,01,10,09,434.00
2008,03,01,10,10,407.20
2008,03,01,10,11,220.00
2008,03,01,10,12,325.50
2008,03,01,10,13,431.00
2008,03,01,10,14,431.00
2008,03,01,10,15,432.00
2008,03,01,10,16,436.00
2008,03,01,10,17,436.90
2008,03,01,10,18,439.00
2008,03,01,10,19,441.80
2008,03,01,10,20,444.80
2008,03,01,10,21,446.00
2008,03,01,10,22,446.40
2008,03,01,10,23,448.60
2008,03,01,10,24,451.10
2008,03,01,10,25,453.20
2008,03,01,10,26,454.00
2008,03,01,10,27,457.10
2008,03,01,10,28,459.40
2008,03,01,10,29,460.30
2008,03,01,10,30,460.60
2008,03,01,10,31,462.00
2008,03,01,10,32,465.80
2008,03,01,10,33,468.70
2008,03,01,10,34,470.00
2008,03,01,10,35,473.70
2008,03,01,10,36,475.60
2008,03,01,10,37,477.50
2008,03,01,10,38,479.90
2008,03,01,10,39,482.10
2008,03,01,10,40,483.00
2008,03,01,10,41,484.40
2008,03,01,10,42,488.20
2008,03,01,10,43,489.80
2008,03,01,10,44,494.00
2008,03,01,10,45,499.50
2008,03,01,10,46,504.50
2008,03,01,10,47,510.40
2008,03,01,10,48,529.20
2008,03,01,10,49,560.80
2008,03,01,10,50,556.40
2008,03,01,10,51,509.40
2008,03,01,10,52,508.10
2008,03,01,10,53,554.00
2008,03,01,10,54,554.00
2008,03,01,10,55,567.00
2008,03,01,10,56,557.20
2008,03,01,10,57,555.00
2008,03,01,10,58,555.00
2008,03,01,10,59,555.00
2008,03,01,11,00,250.10
2008,03,01,11,01,116.90
2008,03,01,11,02,111.80
2008,03,01,11,03,115.60
2008,03,01,11,04,142.10
2008,03,01,11,05,134.60
2008,03,01,11,06,213.20
2008,03,01,11,07,232.00
2008,03,01,11,08,109.60
2008,03,01,11,09,88.40
2008,03,01,11,10,94.50
2008,03,01,11,11,105.00
2008,03,01,11,12,105.00
2008,03,01,11,13,105.00
2008,03,01,11,14,108.40
2008,03,01,11,15,122.00
2008,03,01,11,16,84.10
2008,03,01,11,17,86.00
2008,03,01,11,18,86.00
2008,03,01,11,19,86.00
2008,03,01,11,20,143.30
2008,03,01,11,21,574.20
2008,03,01,11,22,589.80
2008,03,01,11,23,615.00
2008,03,01,11,24,632.90
2008,03,01,11,25,639.70
2008,03,01,11,26,640.00
2008,03,01,11,27,640.00
2008,03,01,11,28,640.00
2008,03,01,11,29,637.40
2008,03,01,11,30,639.30
2008,03,01,11,31,640.00
2008,03,01,11,32,590.60
2008,03,01,11,33,147.50
2008,03,01,11,34,151.00
2008,03,01,11,35,151.00
2008,03,01,11,36,538.60
2008,03,01,11,37,626.30
2008,03,01,11,38,626.00
2008,03,01,11,39,625.40
2008,03,01,11,40,624.00
2008,03,01,11,41,625.40
2008,03,01,11,42,627.60
2008,03,01,11,43,624.60
2008,03,01,11,44,614.60
2008,03,01,11,45,612.10
2008,03,01,11,46,615.00
2008,03,01,11,47,624.00
2008,03,01,11,48,618.10
2008,03,01,11,49,627.90
2008,03,01,11,50,657.00
2008,03,01,11,51,657.00
2008,03,01,11,52,657.00
2008,03,01,11,53,498.70
2008,03,01,11,54,450.00
2008,03,01,11,55,627.40
2008,03,01,11,56,617.80
2008,03,01,11,57,611.90
2008,03,01,11,58,609.00
2008,03,01,11,59,608.00
2008,03,01,12,00,608.00
2008,03,01,12,01,606.90
2008,03,01,12,02,596.50
2008,03,01,12,03,597.10
2008,03,01,12,04,597.20
2008,03,01,12,05,600.00
2008,03,01,12,06,604.80
2008,03,01,12,07,610.40
2008,03,01,12,08,628.00
2008,03,01,12,09,628.00
2008,03,01,12,10,616.40
2008,03,01,12,11,610.00
2008,03,01,12,12,603.00
2008,03,01,12,13,613.80
2008,03,01,12,14,607.30
2008,03,01,12,15,606.00
2008,03,01,12,16,608.60
2008,03,01,12,17,608.40
2008,03,01,12,18,606.00
2008,03,01,12,19,615.00
2008,03,01,12,20,624.80
2008,03,01,12,21,615.90
2008,03,01,12,22,612.90
2008,03,01,12,23,616.40
2008,03,01,12,24,543.00
2008,03,01,12,25,543.00
2008,03,01,12,26,391.50
2008,03,01,12,27,145.40
2008,03,01,12,28,221.60
2008,03,01,12,29,282.80
2008,03,01,12,30,227.80
2008,03,01,12,31,192.60
2008,03,01,12,32,195.00
2008,03,01,12,33,474.40
2008,03,01,12,34,709.80
2008,03,01,12,35,723.80
2008,03,01,12,36,699.40
2008,03,01,12,37,306.00
2008,03,01,12,38,306.00
2008,03,01,12,39,306.00
2008,03,01,12,40,306.00
2008,03,01,12,41,194.80
2008,03,01,12,42,160.50
2008,03,01,12,43,180.00
2008,03,01,12,44,178.60
2008,03,01,12,45,166.20
2008,03,01,12,46,163.00
2008,03,01,12,47,163.00
2008,03,01,12,48,239.00
2008,03,01,12,49,243.00
2008,03,01,12,50,243.00
2008,03,01,12,51,380.20
2008,03,01,12,52,455.00
2008,03,01,12,53,172.00
2008,03,01,12,54,270.90
2008,03,01,12,55,315.00
2008,03,01,12,56,315.00
2008,03,01,12,57,271.60
2008,03,01,12,58,284.20
2008,03,01,12,59,304.00
2008,03,01,13,00,241.90
2008,03,01,13,01,239.50
2008,03,01,13,02,224.40
2008,03,01,13,03,207.00
2008,03,01,13,04,585.90
2008,03,01,13,05,624.40
2008,03,01,13,06,631.00
2008,03,01,13,07,631.00
2008,03,01,13,08,631.00
2008,03,01,13,09,278.80
2008,03,01,13,10,132.00
2008,03,01,13,11,140.80
2008,03,01,13,12,285.30
2008,03,01,13,13,304.00
2008,03,01,13,14,469.90
2008,03,01,13,15,596.00
2008,03,01,13,16,589.60
2008,03,01,13,17,590.80
2008,03,01,13,18,588.60
2008,03,01,13,19,594.00
2008,03,01,13,20,594.00
2008,03,01,13,21,601.80
2008,03,01,13,22,601.30
2008,03,01,13,23,596.00
2008,03,01,13,24,594.50
2008,03,01,13,25,588.20
2008,03,01,13,26,583.10
2008,03,01,13,27,582.00
2008,03,01,13,28,580.10
2008,03,01,13,29,579.80
2008,03,01,13,30,578.00
2008,03,01,13,31,577.60
2008,03,01,13,32,577.00
2008,03,01,13,33,577.00
2008,03,01,13,34,577.00
2008,03,01,13,35,575.20
2008,03,01,13,36,576.50
2008,03,01,13,37,571.70
2008,03,01,13,38,568.00
2008,03,01,13,39,566.40
2008,03,01,13,40,566.00
2008,03,01,13,41,566.00
2008,03,01,13,42,566.00
2008,03,01,13,43,567.10
2008,03,01,13,44,569.40
2008,03,01,13,45,570.80
2008,03,01,13,46,575.30
2008,03,01,13,47,581.70
2008,03,01,13,48,591.10
2008,03,01,13,49,604.50
2008,03,01,13,50,620.20
2008,03,01,13,51,637.50
2008,03,01,13,52,664.00
2008,03,01,13,53,696.00
2008,03,01,13,54,696.00
2008,03,01,13,55,691.90
2008,03,01,13,56,689.00
2008,03,01,13,57,525.50
2008,03,01,13,58,458.60
2008,03,01,13,59,366.00
2008,03,01,14,00,366.00
2008,03,01,14,01,366.00
2008,03,01,14,02,366.00
2008,03,01,14,03,642.20
2008,03,01,14,04,657.50
2008,03,01,14,05,634.80
2008,03,01,14,06,608.20
2008,03,01,14,07,584.80
2008,03,01,14,08,568.20
2008,03,01,14,09,547.00
2008,03,01,14,10,539.80
2008,03,01,14,11,537.00
2008,03,01,14,12,535.60
2008,03,01,14,13,536.70
2008,03,01,14,14,533.60
2008,03,01,14,15,529.80
2008,03,01,14,16,529.00
2008,03,01,14,17,529.00
2008,03,01,14,18,529.00
2008,03,01,14,19,529.00
2008,03,01,14,20,350.50
2008,03,01,14,21,274.00
2008,03,01,14,22,482.60
2008,03,01,14,23,479.40
2008,03,01,14,24,479.00
2008,03,01,14,25,475.00
2008,03,01,14,26,478.90
2008,03,01,14,27,475.00
2008,03,01,14,28,467.70
2008,03,01,14,29,464.60
2008,03,01,14,30,462.00
2008,03,01,14,31,462.00
2008,03,01,14,32,463.50
2008,03,01,14,33,462.00
2008,03,01,14,34,462.00
2008,03,01,14,35,460.90
2008,03,01,14,36,456.80
2008,03,01,14,37,455.00
2008,03,01,14,38,454.10
2008,03,01,14,39,447.70
2008,03,01,14,40,442.60
2008,03,01,14,41,440.10
2008,03,01,14,42,438.40
2008,03,01,14,43,436.50
2008,03,01,14,44,431.30
2008,03,01,14,45,429.10
2008,03,01,14,46,426.50
2008,03,01,14,47,422.90
2008,03,01,14,48,418.10
2008,03,01,14,49,417.00
2008,03,01,14,50,415.10
2008,03,01,14,51,410.90
2008,03,01,14,52,410.00
2008,03,01,14,53,409.10
2008,03,01,14,54,406.70
2008,03,01,14,55,406.00
2008,03,01,14,56,406.00
2008,03,01,14,57,405.50
2008,03,01,14,58,401.10
2008,03,01,14,59,396.50
2008,03,01,15,00,392.10
2008,03,01,15,01,390.00
2008,03,01,15,02,387.00
2008,03,01,15,03,386.40
2008,03,01,15,04,381.40
2008,03,01,15,05,373.00
2008,03,01,15,06,345.70
2008,03,01,15,07,298.90
2008,03,01,15,08,306.00
2008,03,01,15,09,261.30
2008,03,01,15,10,124.10
2008,03,01,15,11,154.80
2008,03,01,15,12,176.60
2008,03,01,15,13,193.50
2008,03,01,15,14,246.10
2008,03,01,15,15,249.40
2008,03,01,15,16,178.40
2008,03,01,15,17,123.70
2008,03,01,15,18,111.10
2008,03,01,15,19,117.40
2008,03,01,15,20,120.40
2008,03,01,15,21,122.30
2008,03,01,15,22,113.20
2008,03,01,15,23,96.00
2008,03,01,15,24,90.80
2008,03,01,15,25,103.20
2008,03,01,15,26,104.00
2008,03,01,15,27,104.00
2008,03,01,15,28,136.90
2008,03,01,15,29,181.50
2008,03,01,15,30,167.60
2008,03,01,15,31,188.40
2008,03,01,15,32,190.00
2008,03,01,15,33,190.00
2008,03,01,15,34,197.00
2008,03,01,15,35,154.20
2008,03,01,15,36,127.00
2008,03,01,15,37,306.00
2008,03,01,15,38,291.20
2008,03,01,15,39,223.00
2008,03,01,15,40,153.50
2008,03,01,15,41,84.00
2008,03,01,15,42,84.00
2008,03,01,15,43,121.70
2008,03,01,15,44,128.00
2008,03,01,15,45,116.10
2008,03,01,15,46,111.60
2008,03,01,15,47,111.50
2008,03,01,15,48,101.50
2008,03,01,15,49,102.00
2008,03,01,15,50,108.30
2008,03,01,15,51,116.90
2008,03,01,15,52,102.40
2008,03,01,15,53,100.60
2008,03,01,15,54,98.40
2008,03,01,15,55,91.00
2008,03,01,15,56,104.80
2008,03,01,15,57,116.80
2008,03,01,15,58,96.10
2008,03,01,15,59,90.20
2008,03,01,16,00,90.40
2008,03,01,16,01,83.00
2008,03,01,16,02,83.20
2008,03,01,16,03,84.00
2008,03,01,16,04,84.00
2008,03,01,16,05,123.00
2008,03,01,16,06,145.40
2008,03,01,16,07,95.00
2008,03,01,16,08,95.00
2008,03,01,16,09,100.60
2008,03,01,16,10,105.20
2008,03,01,16,11,104.00
2008,03,01,16,12,104.00
2008,03,01,16,13,103.30
2008,03,01,16,14,99.50
2008,03,01,16,15,107.30
2008,03,01,16,16,106.60
2008,03,01,16,17,102.60
2008,03,01,16,18,93.00
2008,03,01,16,19,98.70
2008,03,01,16,20,98.20
2008,03,01,16,21,86.40
2008,03,01,16,22,108.50
2008,03,01,16,23,163.00
2008,03,01,16,24,211.00
2008,03,01,16,25,209.80
2008,03,01,16,26,183.50
2008,03,01,16,27,123.80
2008,03,01,16,28,106.10
2008,03,01,16,29,136.80
2008,03,01,16,30,159.70
2008,03,01,16,31,170.60
2008,03,01,16,32,180.80
2008,03,01,16,33,185.40
2008,03,01,16,34,183.80
2008,03,01,16,35,179.50
2008,03,01,16,36,179.00
2008,03,01,16,37,97.40
2008,03,01,16,38,53.10
2008,03,01,16,39,59.50
2008,03,01,16,40,52.80
2008,03,01,16,41,52.50
2008,03,01,16,42,55.80
2008,03,01,16,43,53.80
2008,03,01,16,44,51.40
2008,03,01,16,45,44.90
2008,03,01,16,46,39.70
2008,03,01,16,47,39.00
2008,03,01,16,48,38.80
2008,03,01,16,49,37.00
2008,03,01,16,50,37.00
2008,03,01,16,51,35.80
2008,03,01,16,52,35.00
2008,03,01,16,53,35.00
2008,03,01,16,54,35.00
2008,03,01,16,55,35.00
2008,03,01,16,56,35.00
2008,03,01,16,57,35.00
2008,03,01,16,58,35.00
2008,03,01,16,59,35.00
2008,03,01,17,00,35.40
2008,03,01,17,01,38.80
2008,03,01,17,02,40.50
2008,03,01,17,03,40.90
2008,03,01,17,04,40.60
2008,03,01,17,05,35.00
2008,03,01,17,06,43.60
2008,03,01,17,07,54.40
2008,03,01,17,08,66.50
2008,03,01,17,09,58.90
2008,03,01,17,10,41.60
2008,03,01,17,11,31.50
2008,03,01,17,12,30.00
2008,03,01,17,13,30.00
2008,03,01,17,14,28.90
2008,03,01,17,15,28.00
2008,03,01,17,16,28.00
2008,03,01,17,17,28.00
2008,03,01,17,18,27.60
2008,03,01,17,19,26.00
2008,03,01,17,20,25.50